TELSTAR 14R

Last updated on Sun Jun 21 2026 00:03:05 GMT+0000 (Coordinated Universal Time)

1 37602U 11021A 26171.09438221 -.00000285 00000+0 00000+0 0 9993 2 37602 0.0256 68.3391 0002285 351.2791 179.6656 1.00271568 55862
UTC large
Height (km)
Speed (km/s)
/
Latitude / Longitude
Inclination (degrees)
Orbital Period (minutes)
Azimuth
Elevation
Range (km)
Doppler Factor

Next 0 passes for location: London (51.5072 / 0.1276)

No passes found over London.
TELSTAR 14R